Weather in Glafirovka

Russia / Krasnodar Krai     46°45′44″N   38°24′35″E
temp.,
°C
wind,
m/s
gust,
m/s
humid.,
%
clouds,
%
prec.,
mm/h
press.,
hPa
HPBL,
m
11 april, sun
sun1100:00+9nne3467100 0.0 102269
03:00+9nne4772100 0.0 1021176
06:00+8nne6127199 0.0 1022478
09:00+8nne6137271 0.1 1022629
12:00+11ne81170100 0.0 1021826
15:00+10ene71179100 0.0 1021539
18:00+10ene51084100 0.0 1020528
21:00+9ne5987100 0.0 1020360
12 april, mon
mon1200:00+9ne4890100 0.1 1019228
03:00+9n238992 0.1 101956
06:00+9w2391100 0.3 101950
09:00+10w3392100 0.8 1020215
12:00+10wsw4592100 0.1 1020360
15:00+10w2387100 0.2 1021306
18:00+10wnw2289100 0.0 102299
21:00+9w2387100 0.0 102243
13 april, tue
tue1300:00+9wnw2285100 0.0 102237
03:00+9w2384100 0.0 102246
06:00+9w2387100 0.1 102265
09:00+9wsw2288100 0.2 102298
12:00+9sw2287100 0.3 1022204
15:00+11sw1276100 0.3 1022481
18:00+11nnw2281100 0.0 102243
21:00+9nnw228797 0.0 102121
14 april, wed
wed1400:00+9nnw228978 0.0 102013
03:00+9nw2388100 0.0 101957
06:00+9nnw2387100 0.1 101949
09:00+9wnw2393100 2.3 1019101
12:00+9wnw3491100 1.1 1018177
15:00+10w2387100 1.1 1018186
18:00+10w118492 0.0 101854
21:00+9wsw338473 0.0 101724
15 april, thu
thu1500:00+8w22878 0.0 101712
03:00+8se118840 0.0 101710
06:00+8ese118797 0.0 101610
09:00+11ese1178100 0.0 1016171
12:00+14ene226560 0.0 1015597
15:00+16nne026082 0.0 1014784
18:00+10w6895100 2.8 1015250
21:00+10wnw119589 4.9 101488